Skip Page Navigation
NASA JPL Caltech
NASA Logo - Jet Propulsion Laboratory + View the NASA Portal
+ Center for Near-Earth Object Studies
JPL Home Earth Solar System Stars & Galaxies Technology
JPL Solar System Dynamics
BODIES ORBITS EPHEMERIDES TOOLS PHYSICAL DATA DISCOVERY FAQ SITE MAP
IMPORTANT: The SSD Announcement email list is now available. Major changes are coming in the near future, including possible hostname and/or URL changes. To be notified of such changes, subscribe to this email list.

Please visit this page for more details.


JPL Small-Body Database Browser
Search: [ help ]  
357205 (2002 GB43)
Classification: Main-belt Asteroid          SPK-ID: 2357205
Ephemeris | Orbit Diagram | Orbital Elements | Mission Design | Physical Parameters | Discovery Circumstances ]

[ show orbit diagram ]
Orbital Elements at Epoch 2458600.5 (2019-Apr-27.0) TDB
Reference: JPL 10 (heliocentric ecliptic J2000)
 Element Value Uncertainty (1-sigma)   Units 
e .1533174001590626 7.0946e-08  
a 2.379856589616451 2.3257e-08 au
q 2.014983164545044 1.6937e-07 au
i 6.257820865388781 6.2522e-06 deg
node 293.1569491915338 6.5205e-05 deg
peri 262.1384477356311 6.815e-05 deg
M 229.5676129903958 2.7325e-05 deg
tp 2459086.355976333833
(2020-Aug-24.85597633)
0.00010675 TDB
period 1340.987123599146
3.67
1.9657e-05
5.382e-08
d
yr
n .2684589536055924 3.9352e-09 deg/d
Q 2.744730014687859 2.6822e-08 au
  Orbit Determination Parameters
   # obs. used (total)      142  
   data-arc span      6118 days (16.75 yr)  
   first obs. used      2002-04-04  
   last obs. used      2019-01-03  
   planetary ephem.      DE431  
   SB-pert. ephem.      SB431-N16  
   condition code      0  
   norm. resid. RMS      .61925  
   source      ORB  
   producer      Otto Matic  
   solution date      2019-Jul-13 16:37:00  

Additional Information
 Earth MOID = 1.02583 au 
 Jupiter MOID = 2.26306 au 
 T_jup = 3.515 
[ show covariance matrix ]

Ephemeris | Orbit Diagram | Orbital Elements | Mission Design | Physical Parameters | Discovery Circumstances ]

Physical Parameter Table
Parameter Symbol Value Units Sigma Reference Notes
absolute magnitude H 16.9   n/a MPO455579  

357205 (2002 GB43)          Discovered 2002-Apr-04 by NEAT at Haleakala
Reference: 20130327/Numbers.arcLast Updated: 2013-03-29

Alternate Designations
 2002 GB43 = 2002 GM59 = 2004 XB143 
Ephemeris | Orbit Diagram | Orbital Elements | Mission Design | Physical Parameters | Discovery Circumstances ]
ABOUT SSD CREDITS/AWARDS PRIVACY/COPYRIGHT GLOSSARY LINKS
FirstGov 2019-Dec-15 09:01 UT
(server date/time)  
NASA Home Page
Site Manager:   Ryan S. Park
Webmaster  Alan B. Chamberlin